Worthington, MN

11:20 AM CDT on August 31, 2016 (GMT -0500)
Worthington Municipal

Weather History for KOTG - May, 2014

Change the Weather History Date:

Saturday, May 3, 2014

  Actual Average Record
Temperature  
Mean Temperature 48 °F -  
Max Temperature 60 °F 62 °F 82 °F (1980)
Min Temperature 37 °F 41 °F 21 °F (2005)
Degree Days  
Heating Degree Days 16    
Moisture  
Dew Point 29 °F    
Average Humidity 46    
Maximum Humidity 70    
Minimum Humidity 27    
Precipitation  
Precipitation 0.00 in - - ()
Sea Level Pressure  
Sea Level Pressure 29.91 in    
Wind  
Wind Speed 11 mph (NW)    
Max Wind Speed 22 mph    
Max Gust Speed 28 mph    
Visibility 10 miles    
Events      
Averages and records for this station are not official NWS values.
T = Trace of Precipitation, MM = Missing Value Source: NWS Daily Summary

Daily Weather History Graph

Daily Weather History Graph

Search for Another Location

Airport or City:

Trip Planner

Search our weather history database for the weather conditions in past years. The results will help you decide how hot, cold, wet, or windy it might be!

Date:

Astronomy

May. 03, 2014 Rise Set
Actual Time 6:11 AM CDT 8:27 PM CDT
Civil Twilight 5:40 AM CDT 8:59 PM CDT
Nautical Twilight 5:01 AM CDT 9:38 PM CDT
Astronomical Twilight 4:17 AM CDT 10:22 PM CDT
Moon 9:40 AM CDT (5/3) No Moon Set
Length of Visible Light 15h 18m
Length of Day
14h 15m
Waxing Crescent, 20% of the Moon is Illuminated
May 3
Waxing Crescent
May 6
First Quarter
May 14
Full
May 21
Last Quarter
May 28
New

Hourly Weather History & Observations

Time (CDT) Temp. Windchill Dew Point Humidity Pressure Visibility Wind Dir Wind Speed Gust Speed Precip Events Conditions
12:15 AM 44.6 °F 39.2 °F 28.4 °F 53% 29.82 in 10.0 mi WNW 10.4 mph - N/A   Mostly Cloudy
12:35 AM 44.6 °F 39.2 °F 28.4 °F 53% 29.82 in 10.0 mi WNW 10.4 mph - N/A   Scattered Clouds
12:55 AM 44.6 °F 39.7 °F 28.4 °F 53% 29.83 in 10.0 mi WNW 9.2 mph - N/A   Clear
1:15 AM 42.8 °F 37.5 °F 28.4 °F 57% 29.83 in 10.0 mi West 9.2 mph - N/A   Clear
1:35 AM 42.8 °F 38.6 °F 28.4 °F 57% 29.83 in 10.0 mi West 6.9 mph - N/A   Clear
1:55 AM 39.2 °F 33.0 °F 26.6 °F 61% 29.83 in 10.0 mi West 9.2 mph - N/A   Clear
2:15 AM 39.2 °F 32.5 °F 26.6 °F 61% 29.83 in 10.0 mi West 10.4 mph - N/A   Clear
2:35 AM 39.2 °F 32.0 °F 26.6 °F 61% 29.84 in 10.0 mi West 11.5 mph - N/A   Clear
2:55 AM 37.4 °F 30.3 °F 26.6 °F 65% 29.83 in 10.0 mi West 10.4 mph - N/A   Clear
3:15 AM 37.4 °F 30.3 °F 26.6 °F 65% 29.84 in 10.0 mi West 10.4 mph - N/A   Clear
3:35 AM 37.4 °F 30.8 °F 26.6 °F 65% 29.84 in 10.0 mi WSW 9.2 mph - N/A   Clear
3:55 AM 37.4 °F 30.3 °F 26.6 °F 65% 29.84 in 10.0 mi West 10.4 mph - N/A   Clear
4:15 AM 37.4 °F 30.8 °F 26.6 °F 65% 29.84 in 10.0 mi West 9.2 mph - N/A   Clear
4:35 AM 39.2 °F 33.0 °F 28.4 °F 65% 29.84 in 10.0 mi West 9.2 mph - N/A   Clear
5:15 AM 37.4 °F 29.3 °F 26.6 °F 65% 29.85 in 10.0 mi West 12.7 mph - N/A   Clear
5:35 AM 37.4 °F 30.3 °F 26.6 °F 65% 29.85 in 10.0 mi West 10.4 mph - N/A   Clear
5:55 AM 37.4 °F 30.8 °F 28.4 °F 70% 29.85 in 10.0 mi WSW 9.2 mph - N/A   Clear
6:15 AM 37.4 °F 30.3 °F 26.6 °F 65% 29.85 in 10.0 mi WSW 10.4 mph - N/A   Clear
6:35 AM 37.4 °F 30.3 °F 26.6 °F 65% 29.87 in 10.0 mi West 10.4 mph - N/A   Clear
6:55 AM 37.4 °F 32.1 °F 26.6 °F 65% 29.87 in 10.0 mi West 6.9 mph - N/A   Clear
7:15 AM 39.2 °F 33.0 °F 28.4 °F 65% 29.88 in 10.0 mi WNW 9.2 mph - N/A   Clear
7:35 AM 44.6 °F 38.4 °F 30.2 °F 57% 29.88 in 10.0 mi WNW 12.7 mph - N/A   Clear
7:55 AM 46.4 °F 40.4 °F 32.0 °F 57% 29.88 in 10.0 mi West 13.8 mph - N/A   Clear
8:15 AM 48.2 °F - 32.0 °F 54% 29.89 in 10.0 mi West 15.0 mph - N/A   Clear
8:35 AM 50.0 °F - 32.0 °F 50% 29.89 in 10.0 mi WNW 12.7 mph - N/A   Scattered Clouds
8:55 AM 50.0 °F - 32.0 °F 50% 29.89 in 10.0 mi WNW 12.7 mph - N/A   Partly Cloudy
9:15 AM 53.6 °F - 33.8 °F 47% 29.89 in 10.0 mi NW 15.0 mph - N/A   Scattered Clouds
9:35 AM 53.6 °F - 32.0 °F 44% 29.90 in 10.0 mi NW 17.3 mph 21.9 mph N/A   Overcast
9:55 AM 51.8 °F - 33.8 °F 50% 29.90 in 10.0 mi NW 16.1 mph - N/A   Overcast
10:15 AM 53.6 °F - 33.8 °F 47% 29.90 in 10.0 mi NW 16.1 mph - N/A   Mostly Cloudy
10:35 AM 53.6 °F - 33.8 °F 47% 29.90 in 10.0 mi NW 12.7 mph 19.6 mph N/A   Mostly Cloudy
10:55 AM 55.4 °F - 33.8 °F 44% 29.91 in 10.0 mi NW 20.7 mph - N/A   Partly Cloudy
11:15 AM 57.2 °F - 33.8 °F 41% 29.91 in 10.0 mi NNW 17.3 mph 23.0 mph N/A   Clear
11:35 AM 57.2 °F - 33.8 °F 41% 29.92 in 10.0 mi NNW 11.5 mph 19.6 mph N/A   Clear
11:55 AM 57.2 °F - 32.0 °F 38% 29.92 in 10.0 mi NW 17.3 mph 26.5 mph N/A   Partly Cloudy
12:15 PM 57.2 °F - 33.8 °F 41% 29.92 in 10.0 mi NNW 16.1 mph 25.3 mph N/A   Partly Cloudy
12:35 PM 57.2 °F - 32.0 °F 38% 29.92 in 10.0 mi WNW 19.6 mph 26.5 mph N/A   Clear
12:55 PM 60.8 °F - 30.2 °F 31% 29.92 in 10.0 mi NNW 13.8 mph 25.3 mph N/A   Partly Cloudy
1:15 PM 60.8 °F - 26.6 °F 27% 29.92 in 10.0 mi NNW 18.4 mph 26.5 mph N/A   Partly Cloudy
1:35 PM 60.8 °F - 28.4 °F 29% 29.92 in 10.0 mi NW 21.9 mph 26.5 mph N/A   Partly Cloudy
1:55 PM 60.8 °F - 30.2 °F 31% 29.93 in 10.0 mi North 12.7 mph 27.6 mph N/A   Mostly Cloudy
2:15 PM 60.8 °F - 28.4 °F 29% 29.93 in 10.0 mi NNW 15.0 mph 26.5 mph N/A   Mostly Cloudy
2:35 PM 60.8 °F - 28.4 °F 29% 29.93 in 10.0 mi NW 13.8 mph 21.9 mph N/A   Scattered Clouds
3:15 PM 60.8 °F - 28.4 °F 29% 29.92 in 10.0 mi North 13.8 mph 19.6 mph N/A   Scattered Clouds
3:35 PM 60.8 °F - 28.4 °F 29% 29.92 in 10.0 mi NW 11.5 mph 18.4 mph N/A   Partly Cloudy
3:55 PM 60.8 °F - 28.4 °F 29% 29.92 in 10.0 mi North 16.1 mph - N/A   Mostly Cloudy
4:15 PM 60.8 °F - 28.4 °F 29% 29.92 in 10.0 mi NNW 12.7 mph 17.3 mph N/A   Overcast
4:35 PM 60.8 °F - 28.4 °F 29% 29.92 in 10.0 mi North 11.5 mph - N/A   Mostly Cloudy
4:55 PM 60.8 °F - 30.2 °F 31% 29.92 in 10.0 mi NW 16.1 mph 20.7 mph N/A   Scattered Clouds
5:15 PM 59.0 °F - 28.4 °F 31% 29.93 in 10.0 mi NNE 6.9 mph - N/A   Mostly Cloudy
5:35 PM 59.0 °F - 28.4 °F 31% 29.93 in 10.0 mi WNW 9.2 mph 20.7 mph N/A   Scattered Clouds
5:55 PM 60.8 °F - 28.4 °F 29% 29.93 in 10.0 mi NW 11.5 mph - N/A   Scattered Clouds
6:15 PM 59.0 °F - 28.4 °F 31% 29.94 in 10.0 mi NW 16.1 mph - N/A   Mostly Cloudy
6:35 PM 57.2 °F - 28.4 °F 33% 29.94 in 10.0 mi NW 18.4 mph - N/A   Mostly Cloudy
6:55 PM 57.2 °F - 28.4 °F 33% 29.94 in 10.0 mi WNW 17.3 mph - N/A   Overcast
7:15 PM 57.2 °F - 28.4 °F 33% 29.95 in 10.0 mi WNW 17.3 mph - N/A   Overcast
7:35 PM 57.2 °F - 28.4 °F 33% 29.96 in 10.0 mi NW 13.8 mph 20.7 mph N/A   Overcast
7:55 PM 57.2 °F - 28.4 °F 33% 29.96 in 10.0 mi WNW 12.7 mph - N/A   Overcast
8:15 PM 55.4 °F - 28.4 °F 36% 29.96 in 10.0 mi WNW 9.2 mph - N/A   Overcast
8:35 PM 53.6 °F - 30.2 °F 41% 29.96 in 10.0 mi WNW 8.1 mph - N/A   Scattered Clouds
8:55 PM 51.8 °F - 30.2 °F 44% 29.97 in 10.0 mi North 9.2 mph - N/A   Scattered Clouds
9:15 PM 51.8 °F - 28.4 °F 41% 29.98 in 10.0 mi North 8.1 mph - N/A   Scattered Clouds
9:35 PM 51.8 °F - 28.4 °F 41% 29.99 in 10.0 mi NNE 4.6 mph - N/A   Mostly Cloudy
9:55 PM 50.0 °F - 28.4 °F 43% 29.99 in 10.0 mi North 5.8 mph - N/A   Overcast
10:15 PM 51.8 °F - 28.4 °F 41% 30.00 in 10.0 mi North 5.8 mph - N/A   Overcast
10:35 PM 50.0 °F - 30.2 °F 47% 29.99 in 10.0 mi North 5.8 mph - N/A   Overcast
10:55 PM 50.0 °F - 30.2 °F 47% 30.00 in 10.0 mi North 6.9 mph - N/A   Overcast
11:15 PM 48.2 °F - 30.2 °F 50% 30.00 in 10.0 mi North 10.4 mph - N/A   Overcast
11:35 PM 48.2 °F - 30.2 °F 50% 30.00 in 10.0 mi NNE 10.4 mph - N/A   Overcast
11:55 PM 48.2 °F - 32.0 °F 54% 30.01 in 10.0 mi North 6.9 mph - N/A   Overcast